Wind_Speed
7 7 6 7 7 8 6 3 5 2 4 7 6 7 3 3 5 6 5 4 3 2 2 3 2 3 2 4 1 6 10 7 4 1 1 6 10 13 16 20 24 23 23 22 21 20 19 18 17 17 16 17 19 19 19 19 17 16 16 17 17 17 17 17 17 17 17 16 16 16 16 15 15 15 15 14 14 14 14 14 13 13 13 14 14 15 15 14 14 14 14 14 14 14 13 12 13
5 5 5 5 5 7 2 1 7 4 5 7 6 6 3 4 5 5 6 5 4 4 3 1 1 2 1 3 1 3 7 10 9 6 6 12 14 14 18 21 22 23 23 22 21 20 18 18 18 18 17 18 19 20 19 18 17 17 17 17 17 17 17 17 17 17 17 15 15 15 15 15 14 14 14 14 14 14 14 13 13 13 13 13 14 14 14 13 13 13 13 12 12 11 11 10 10
3 4 4 5 4 4 2 3 6 6 6 7 7 2 3 5 4 5 6 5 5 3 2 2 2 2 2 4 2 1 3 7 10 10 9 13 14 15 20 21 21 22 22 21 20 19 18 18 19 19 18 18 19 20 20 19 18 17 17 17 17 18 18 17 17 17 16 15 15 15 15 14 14 14 14 13 13 13 13 13 13 13 13 13 13 13 12 12 11 11 11 11 10 10 9 10 9
1 2 3 6 4 3 4 5 5 7 7 7 7 2 3 3 3 4 5 5 3 1 1 1 2 2 4 2 3 3 6 5 9 10 9 11 14 19 21 20 21 21 20 20 19 18 18 18 19 19 18 17 18 20 20 19 17 17 17 17 18 18 17 17 17 16 15 15 15 15 14 14 13 13 13 12 12 12 12 11 12 11 12 12 12 12 12 11 11 10 10 9 9 10 10 10 9
1 2 3 6 4 2 3 5 5 7 8 7 8 4 2 1 4 4 4 2 1 1 1 2 2 3 2 6 3 1 7 6 8 10 11 13 17 22 21 20 21 19 19 19 18 17 18 19 20 19 18 16 18 20 20 19 18 18 17 17 18 17 17 16 16 16 15 15 15 14 14 13 13 12 12 10 10 9 9 9 9 9 10 11 11 11 11 10 10 9 8 8 9 10 10 10 9
2 3 3 5 2 2 4 6 7 8 9 8 10 6 2 3 5 3 1 1 1 1 1 2 1 5 4 6 6 4 4 4 9 10 13 17 19 21 20 20 19 19 18 18 18 17 18 20 20 20 18 17 19 20 20 19 18 19 18 17 17 17 16 16 15 14 14 14 15 14 13 12 11 11 10 9 8 7 6 6 6 6 7 8 9 9 9 9 8 8 7 7 8 9 10 9 9
3 4 3 4 2 2 7 8 9 9 7 5 8 7 2 4 3 2 2 2 2 2 2 3 3 5 5 5 5 7 3 4 8 10 15 19 20 19 19 19 19 19 18 18 17 17 18 19 20 19 18 18 18 20 20 19 18 18 17 17 16 16 15 15 15 13 13 14 13 13 12 11 10 10 9 9 8 7 7 5 5 5 5 6 7 7 8 8 8 8 7 6 8 9 10 10 9
4 4 1 4 4 4 7 9 10 10 4 1 4 6 3 3 2 5 5 3 1 2 3 4 7 5 4 5 4 7 6 7 10 14 18 20 20 19 18 18 19 18 17 18 18 17 17 18 20 18 18 18 18 20 19 18 18 17 16 16 15 15 15 15 14 13 13 13 12 11 11 10 9 9 9 8 8 8 8 7 7 6 5 5 6 6 7 8 8 8 7 6 8 8 10 10 10
6 4 2 5 7 6 7 9 10 11 7 2 4 4 3 4 5 7 7 6 3 2 4 5 8 5 6 7 7 8 7 11 15 18 19 19 19 18 17 17 19 18 18 19 18 18 16 17 19 18 18 18 18 19 18 18 17 16 15 15 15 15 15 14 13 12 12 12 11 10 9 9 9 8 8 8 8 9 10 9 8 7 6 5 5 6 7 8 9 9 8 7 7 8 9 10 10
6 4 3 5 7 8 9 9 9 8 7 4 4 4 4 6 7 8 9 8 5 6 5 5 6 6 9 10 9 6 8 14 18 19 19 19 18 17 17 17 18 19 19 19 19 18 16 17 18 18 17 17 18 18 18 18 17 16 15 14 14 15 14 13 13 12 12 11 10 9 9 9 10 9 9 9 9 10 10 10 8 7 5 5 5 6 8 9 10 10 9 8 7 8 9 10 10
5 4 3 5 7 9 9 9 9 6 3 3 4 5 5 6 7 8 10 9 7 7 7 6 7 9 10 9 6 5 10 15 18 19 19 17 17 17 18 17 18 19 19 19 19 18 17 16 16 17 17 17 17 17 18 18 17 17 16 14 13 13 13 13 12 12 12 11 11 10 10 10 10 11 11 11 10 10 10 10 10 9 7 6 6 7 10 11 12 11 9 8 7 8 8 9 10
6 5 4 7 9 9 9 9 8 6 3 5 5 4 3 5 7 8 10 10 9 8 10 8 7 10 9 9 6 6 12 15 17 18 18 17 17 17 17 18 18 18 19 19 19 18 18 17 16 15 16 17 17 17 17 17 17 16 16 14 13 12 12 11 12 12 12 11 10 10 10 10 11 11 12 12 11 10 10 10 9 9 9 8 8 9 11 12 12 10 9 7 7 8 8 9 9
6 5 6 7 8 8 8 8 7 6 5 5 3 4 0 5 8 9 10 11 11 11 11 8 8 9 6 9 8 8 12 14 17 18 18 18 17 17 17 18 18 18 18 17 17 18 18 17 16 15 15 15 15 15 14 15 16 16 15 14 13 13 11 11 12 12 11 10 10 10 10 10 10 10 11 12 10 10 10 9 8 8 9 8 8 9 10 10 11 10 8 7 7 8 8 8 9
6 5 6 7 6 7 7 8 6 6 6 4 5 3 2 4 5 6 8 10 12 10 8 9 9 7 7 9 8 8 11 16 18 18 18 17 17 17 17 18 17 17 17 16 17 17 16 16 17 16 15 14 12 13 12 13 15 15 14 13 14 13 11 11 12 11 10 9 9 9 9 10 11 10 10 10 9 10 10 9 8 8 8 8 8 9 9 9 9 9 8 7 7 7 8 8 8
5 4 5 7 6 7 8 8 6 6 4 8 5 4 4 2 2 6 8 10 8 5 7 9 6 4 8 9 9 10 15 19 19 18 19 19 18 18 18 17 16 16 16 15 16 15 15 15 16 15 14 14 12 12 12 12 13 13 12 13 13 12 11 11 11 10 9 8 8 8 9 9 10 9 9 8 8 9 9 8 8 8 7 8 7 8 9 8 7 8 7 6 6 7 7 8 8
5 4 5 7 7 8 7 7 6 6 3 8 4 4 4 1 2 5 6 7 5 7 6 7 2 1 5 7 12 18 20 21 20 18 19 19 18 18 17 16 16 16 15 15 14 14 14 14 14 14 13 13 12 12 12 11 11 11 11 12 12 12 11 11 10 9 9 8 8 8 8 8 7 7 7 7 7 7 7 6 7 7 7 8 7 6 7 8 7 7 7 7 6 6 7 7 8
4 5 7 7 8 8 6 7 6 2 4 6 2 4 6 1 3 2 2 4 7 10 6 6 4 1 4 11 20 24 22 21 20 19 19 18 17 17 16 16 15 14 14 15 14 14 14 13 13 12 12 12 12 13 12 10 10 11 11 11 11 10 10 9 8 8 8 7 6 6 7 6 5 5 5 6 6 5 5 5 6 6 7 7 8 6 4 7 8 7 7 7 6 6 6 6 7
6 6 8 8 8 7 4 6 3 0 3 3 3 4 7 4 4 4 6 8 10 11 8 8 8 8 12 18 24 24 22 21 20 19 18 17 16 16 16 15 14 14 13 13 13 13 13 12 12 12 12 12 12 12 11 10 10 11 10 11 10 8 8 8 7 7 6 6 5 5 5 5 6 6 6 6 6 4 3 4 5 5 6 6 7 7 5 4 6 8 8 7 7 6 6 5 6
8 6 7 8 6 3 2 2 1 1 1 4 4 4 7 3 5 6 9 11 12 12 10 10 12 13 15 19 23 23 22 21 19 18 18 16 16 16 15 15 14 14 12 12 12 12 12 12 12 12 12 12 12 11 11 11 10 10 10 10 9 9 8 8 7 7 6 6 5 5 5 5 6 6 6 6 7 6 6 6 5 4 4 4 5 6 6 4 3 7 8 8 7 5 4 4 5
9 7 7 7 4 2 3 2 1 1 4 6 5 6 6 2 6 6 9 12 13 12 11 12 13 15 16 18 21 23 21 20 19 17 17 17 15 15 15 14 14 13 12 12 12 11 11 12 12 11 12 11 10 10 10 10 10 10 9 9 10 9 8 8 7 7 6 6 5 5 5 5 5 4 4 5 5 4 5 5 5 5 3 2 3 4 3 4 3 3 7 8 7 4 4 4 4
7 8 8 4 3 4 4 4 3 2 4 5 6 8 4 4 6 6 9 12 12 10 10 10 13 17 17 18 20 22 21 19 18 17 17 16 16 14 14 14 13 13 12 12 12 11 11 11 11 11 11 10 10 10 10 10 10 10 9 9 9 9 8 8 7 7 7 6 5 5 4 4 4 4 3 3 3 3 3 3 3 4 4 2 1 2 0 2 3 2 5 8 7 6 5 4 3
6 9 10 2 3 6 4 4 2 1 3 5 6 6 1 5 5 7 10 9 5 5 8 8 13 16 17 18 19 20 19 18 17 16 16 16 15 14 14 13 13 12 12 12 11 11 11 10 11 10 10 10 9 9 10 10 10 10 10 9 9 9 8 8 8 8 7 6 5 4 3 3 3 3 3 3 2 2 2 2 2 2 3 3 2 2 2 1 1 2 4 6 7 7 6 5 4
7 8 10 5 5 5 2 3 2 1 5 5 5 5 2 5 6 7 8 3 3 3 6 9 13 16 18 19 18 18 17 16 16 16 16 15 15 14 14 13 13 12 11 12 11 11 11 10 10 10 10 10 10 10 10 10 10 10 10 10 9 9 9 8 7 7 6 5 4 3 2 2 2 2 2 2 2 2 2 2 2 1 1 2 2 1 1 1 1 1 2 4 6 7 7 6 5
10 6 8 9 8 6 4 4 3 3 6 6 5 5 5 7 6 7 6 4 3 3 7 11 15 17 18 18 16 16 15 15 15 15 14 14 14 14 13 13 13 12 12 12 11 11 11 11 11 10 11 11 11 10 10 10 10 10 10 10 9 9 8 8 7 6 5 4 3 2 1 1 1 1 1 1 1 1 2 2 2 2 1 1 1 1 1 2 2 2 2 3 4 6 7 7 7
13 8 6 8 7 7 7 5 5 5 5 4 5 5 6 6 6 6 6 5 4 6 10 13 16 18 17 16 16 15 14 15 15 14 13 12 14 15 14 13 12 12 13 13 12 12 12 11 11 11 11 12 12 11 11 11 11 11 10 10 9 8 8 7 6 6 4 3 2 1 1 1 0 1 1 1 1 2 2 2 2 2 1 1 1 1 1 1 2 2 2 3 4 5 6 7 7
12 12 6 7 7 7 7 6 7 5 4 4 4 3 3 6 8 5 5 6 7 8 12 15 17 18 16 15 15 14 13 14 15 14 13 12 14 15 14 13 13 12 13 13 12 12 12 12 12 12 12 12 12 12 11 11 11 10 9 9 9 8 8 7 6 5 4 3 2 1 1 1 0 0 0 1 1 2 2 2 2 2 2 2 2 3 3 2 2 3 3 4 4 5 6 6 7
7 13 9 8 8 6 6 6 6 4 4 6 4 4 6 8 7 4 6 7 8 11 13 15 17 17 16 15 14 13 14 14 15 14 13 13 13 14 14 13 13 13 13 13 12 13 13 13 13 13 13 13 12 12 12 11 10 9 8 8 8 8 7 6 5 4 4 3 2 2 1 1 1 1 1 1 1 2 2 2 2 1 2 2 2 3 3 3 3 3 3 4 5 5 6 6 7
5 10 9 10 9 7 8 8 6 5 5 6 5 6 8 7 6 5 10 9 9 13 14 16 16 16 16 15 13 13 13 13 13 13 13 13 12 13 14 13 13 13 14 13 13 14 15 14 14 13 12 13 12 11 11 10 9 8 7 7 6 6 6 5 5 4 4 3 3 2 2 1 1 1 1 1 1 2 1 1 2 2 2 2 3 3 3 4 4 4 4 4 5 6 7 7 8
5 7 7 10 10 10 12 10 8 7 6 7 8 7 8 7 4 7 12 10 11 13 14 16 15 15 15 14 12 11 12 12 11 11 11 11 11 13 14 13 14 14 13 13 14 15 14 14 14 12 12 12 12 11 10 9 9 7 7 6 5 5 5 5 5 4 4 3 2 2 2 1 1 0 1 1 1 1 1 1 2 2 2 2 2 2 3 3 3 4 4 4 5 6 7 8 8
6 7 7 7 8 10 13 12 9 8 7 10 10 7 8 8 6 7 11 12 13 14 14 14 13 13 13 12 11 10 10 10 9 9 9 9 11 13 14 14 14 13 14 14 15 15 14 14 14 13 11 11 11 10 9 8 9 7 6 6 5 6 5 5 5 4 4 3 2 2 2 1 1 1 1 0 0 0 1 1 1 2 2 2 2 3 3 3 3 4 4 4 4 6 7 7 8
8 8 7 6 6 8 12 11 10 9 7 10 10 6 6 8 8 8 10 13 14 14 14 14 13 12 12 12 12 10 9 9 9 9 9 10 12 14 15 15 15 14 14 15 15 14 14 14 13 13 12 11 9 9 9 8 8 8 7 6 6 6 6 5 5 4 3 3 2 2 1 1 1 1 2 2 2 2 2 1 1 2 2 2 3 3 3 3 3 3 4 4 5 6 7 7 7
8 8 7 7 7 7 12 9 11 9 7 10 10 5 6 9 10 8 9 13 13 14 14 13 13 13 12 10 10 9 9 9 10 9 10 10 11 14 15 15 15 14 15 16 16 15 15 14 13 14 12 10 9 8 8 8 9 8 8 7 7 6 6 5 5 4 3 2 2 1 1 1 2 2 2 2 2 3 3 2 2 3 3 3 3 3 3 3 3 4 4 5 6 7 7 8 7
8 8 7 9 9 8 10 8 8 7 8 11 11 4 6 9 10 7 9 13 13 13 14 13 12 12 10 8 7 8 8 9 10 10 11 12 13 14 15 14 14 14 15 17 16 15 15 15 14 13 12 10 10 9 9 9 9 9 8 8 7 7 6 6 5 4 3 2 2 2 2 2 2 3 3 3 3 3 3 3 3 4 4 4 4 3 3 3 3 4 4 5 6 7 7 8 7
8 9 6 8 11 8 9 10 8 9 10 11 11 5 7 10 10 8 9 11 12 11 11 10 11 12 10 9 9 8 8 8 9 11 12 12 13 13 13 13 13 14 15 15 14 14 14 14 13 12 11 11 10 10 10 10 9 9 8 8 7 7 7 6 5 4 4 4 3 3 3 2 2 3 3 3 3 4 3 3 4 4 4 4 5 4 4 4 4 4 5 6 6 6 7 8 8
10 10 7 7 10 9 9 10 9 12 12 11 11 6 9 12 10 8 9 10 10 9 7 6 8 11 10 8 8 8 8 7 8 12 12 11 12 12 10 12 14 14 15 15 13 13 13 13 12 11 10 10 10 10 10 10 9 8 9 9 8 8 7 7 6 5 5 5 4 4 3 3 4 4 4 4 3 4 4 3 4 4 4 4 5 5 5 5 5 5 5 6 7 7 7 7 8
11 13 10 8 9 8 6 9 9 12 13 12 11 8 10 11 9 8 9 10 11 12 8 4 6 10 10 8 5 3 4 4 6 7 6 6 9 9 8 11 13 13 14 15 14 12 12 12 12 11 10 10 10 9 9 9 9 8 8 8 9 9 8 7 7 6 6 6 5 5 4 4 5 5 5 5 4 4 4 4 4 4 4 4 5 5 5 5 6 6 6 7 7 7 7 7 8
9 12 11 9 10 8 7 9 8 9 11 10 10 11 11 9 8 7 9 12 12 12 10 7 8 10 9 9 9 7 7 8 11 14 13 12 11 11 11 11 12 13 14 14 13 13 12 12 12 11 10 9 9 9 8 8 9 8 7 8 10 9 8 8 8 8 7 6 6 6 6 6 6 5 6 6 6 6 5 5 5 5 5 5 5 5 5 6 6 6 7 8 7 7 7 7 7
6 9 9 8 8 8 8 8 8 6 7 7 9 12 10 7 8 6 8 11 10 11 11 9 11 11 8 10 10 8 6 6 10 11 12 15 14 11 11 11 11 13 13 13 13 13 13 12 12 11 11 10 10 10 10 10 9 8 8 9 9 8 8 8 8 7 7 7 7 7 7 7 7 7 7 6 6 7 6 6 6 5 5 5 5 5 5 6 6 7 7 8 8 8 8 7 7
5 7 8 8 7 9 8 7 10 6 5 8 11 11 9 7 8 7 6 9 8 9 10 11 12 11 9 9 9 10 10 10 10 10 10 11 9 6 9 11 12 13 13 13 13 13 13 12 12 12 12 12 11 11 11 11 11 10 10 9 8 8 8 8 8 7 7 7 8 8 8 7 7 7 7 7 6 7 7 6 6 6 6 6 6 6 6 6 7 7 7 8 9 10 9 8 6
7 7 8 8 9 10 8 8 10 7 5 10 12 9 6 6 7 7 5 7 9 7 8 10 11 10 10 11 10 11 13 13 12 11 10 11 7 3 7 10 11 13 14 14 13 13 13 12 12 12 12 12 11 11 11 12 12 11 10 10 9 9 8 8 8 8 7 8 8 8 8 8 7 7 8 8 7 7 8 8 8 8 8 8 7 7 7 7 7 8 8 9 10 11 10 8 6
8 9 8 8 12 11 8 11 11 8 7 11 13 7 4 4 5 6 5 7 10 9 9 9 10 10 11 11 11 10 11 13 14 12 10 13 10 5 7 9 10 13 14 14 13 13 13 13 13 13 13 12 11 10 10 11 11 11 10 10 9 9 8 7 7 7 7 7 8 8 8 7 7 7 8 8 7 7 8 8 8 8 8 8 9 9 9 9 10 10 10 9 10 11 11 11 9
8 9 6 5 12 11 12 16 13 9 8 11 12 7 5 6 7 7 5 7 10 10 11 11 11 12 12 11 11 10 10 12 14 13 11 14 13 10 10 9 8 11 13 13 15 15 14 14 13 13 13 12 11 10 9 10 10 9 8 7 7 7 7 7 7 6 6 6 6 6 7 7 7 7 7 8 7 7 7 7 7 7 8 8 9 9 10 10 12 13 12 12 12 11 12 13 12
7 10 5 4 11 13 15 17 13 9 8 11 12 9 5 7 9 9 8 8 11 11 11 12 11 11 11 11 10 10 10 10 13 13 12 13 13 13 12 10 9 11 14 16 18 18 17 16 15 13 13 12 11 10 9 9 9 8 7 6 5 5 6 7 6 6 5 5 5 5 6 7 8 8 8 9 9 9 9 9 8 9 9 10 10 10 11 11 11 11 11 12 14 13 12 13 13
5 12 11 7 10 13 15 15 11 8 8 10 11 9 6 7 9 11 10 9 11 12 12 12 11 10 10 11 10 10 10 11 13 12 13 13 14 14 13 13 12 12 16 17 18 17 17 16 15 14 13 12 11 10 9 8 8 8 7 7 7 6 6 6 6 5 5 4 5 5 5 6 8 10 10 10 11 11 11 11 11 11 11 11 11 11 12 12 12 12 11 11 12 13 13 14 14
6 12 13 9 9 11 12 11 8 7 8 9 11 10 8 7 9 11 12 11 12 13 14 13 13 12 11 10 10 10 9 10 13 13 13 15 16 16 15 15 14 15 17 18 17 16 16 17 16 15 14 12 12 11 10 9 8 7 6 6 7 6 6 5 4 3 3 4 4 5 5 6 7 8 10 10 10 11 12 11 12 12 12 13 12 12 12 13 13 12 12 11 11 12 12 12 13
7 12 11 8 7 8 9 8 6 8 8 9 12 13 10 7 9 11 11 12 13 13 13 13 13 13 11 11 11 10 9 10 12 13 14 16 17 17 17 16 15 18 19 19 19 18 17 17 16 16 14 13 12 11 11 11 10 9 7 6 6 6 5 4 3 3 3 4 4 5 5 6 7 7 10 11 11 11 12 12 12 11 12 12 12 12 13 13 13 12 11 11 12 12 12 12 12
9 11 10 8 7 6 5 5 5 7 9 10 14 15 12 8 8 11 11 12 14 13 12 14 14 14 13 12 12 11 10 10 12 13 15 17 17 17 17 15 14 17 20 19 19 17 16 16 14 15 14 12 12 11 11 11 11 12 10 9 7 6 5 4 4 4 4 4 5 6 6 7 8 8 10 12 12 12 12 13 12 11 11 11 12 11 12 12 12 12 11 11 11 12 12 13 12
10 11 10 9 7 6 5 5 5 7 8 10 14 15 13 10 7 11 12 12 14 15 15 17 18 16 14 13 12 12 11 12 12 13 15 17 18 17 18 16 14 15 17 16 15 14 13 13 14 15 13 12 11 10 11 11 12 12 12 11 10 8 6 6 5 5 5 6 6 7 7 8 9 9 11 12 13 13 12 13 13 12 11 12 12 11 11 12 11 11 11 12 12 12 13 13 12
11 11 10 9 8 7 8 7 7 8 5 5 12 14 12 8 3 10 15 13 13 15 16 17 19 17 15 14 13 12 12 13 13 13 14 16 18 19 19 18 17 15 15 15 14 13 13 13 13 14 13 11 11 11 11 12 12 12 11 11 10 9 9 8 8 8 7 7 7 8 8 9 9 10 11 12 12 12 12 12 13 12 12 12 12 12 11 12 12 11 12 13 13 13 14 14 13
13 11 11 10 8 8 9 8 8 8 4 5 9 10 9 7 3 5 12 13 12 14 14 16 18 17 15 15 13 12 13 13 13 13 13 14 17 18 18 18 18 17 16 15 14 13 12 12 13 14 13 11 11 11 12 12 12 12 12 12 10 11 11 10 10 10 9 9 9 9 9 10 10 11 12 11 11 12 12 13 14 14 13 13 13 13 13 12 12 11 12 13 13 12 14 13 13
13 11 10 10 8 7 8 7 8 9 6 7 9 8 6 7 4 2 3 6 8 12 13 13 13 14 14 14 13 13 13 13 12 13 12 14 16 17 17 16 16 17 16 15 13 13 12 12 12 14 13 12 12 12 12 12 13 13 13 12 12 11 11 11 11 10 10 10 10 10 10 10 11 12 11 11 11 11 13 14 15 15 15 15 15 15 13 12 12 11 11 13 12 12 13 13 13
11 10 10 10 8 6 4 1 2 5 7 7 8 5 2 2 3 2 1 4 8 11 14 16 13 14 14 13 13 13 13 13 13 12 13 16 18 16 16 16 16 16 16 14 13 12 12 12 13 14 14 13 13 12 12 12 12 13 13 13 13 12 11 11 11 11 11 10 10 11 11 11 11 11 11 11 12 12 13 14 15 16 16 16 15 14 13 12 11 11 11 12 12 12 12 13 13
8 10 10 7 5 4 4 3 4 3 6 7 7 6 3 3 4 5 5 7 11 12 15 18 17 17 16 14 14 14 13 13 12 12 13 17 18 15 14 15 15 15 15 14 13 12 13 13 14 14 14 12 12 12 12 12 12 13 14 13 13 13 12 12 11 11 11 11 11 11 11 12 11 10 10 11 12 13 14 13 14 15 16 16 15 14 14 13 12 11 11 12 13 12 11 12 12
7 10 10 6 1 2 4 5 4 5 7 5 7 9 8 7 6 7 9 11 14 15 16 18 17 19 18 15 15 15 14 14 13 14 15 17 18 16 15 14 14 15 14 14 13 13 13 13 14 14 13 11 11 11 11 11 12 12 13 13 13 12 12 12 12 12 12 12 12 12 12 12 11 11 11 11 12 13 13 14 14 15 16 16 16 15 14 14 13 12 12 12 13 12 11 11 12
6 8 11 8 5 6 6 6 6 9 8 5 8 10 9 9 7 9 12 15 16 17 17 18 19 19 17 16 16 17 16 14 14 14 14 16 18 17 17 16 15 15 15 14 14 14 14 14 14 14 12 10 10 10 10 11 11 11 12 12 12 12 12 12 12 13 13 14 14 13 13 12 11 11 11 11 12 13 13 14 15 15 15 16 16 15 14 14 13 13 12 12 13 13 12 12 12
7 8 10 9 7 6 7 7 5 6 8 6 7 8 8 8 8 11 15 16 18 18 18 18 19 18 16 15 17 17 16 15 15 14 14 16 18 18 17 17 16 16 15 15 15 15 15 15 14 13 11 10 10 10 11 11 11 12 12 12 12 12 13 13 13 13 14 14 13 13 13 12 12 12 12 12 12 13 14 15 15 15 15 15 15 15 14 14 14 13 13 12 13 13 13 12 13
9 8 10 10 6 2 5 7 6 6 7 6 6 6 6 5 5 11 16 16 18 19 19 18 17 18 16 15 17 17 15 15 15 14 14 17 19 18 18 17 17 17 16 16 15 15 15 14 13 12 10 11 11 10 11 11 12 12 12 13 13 13 13 14 14 14 14 13 13 13 12 12 12 12 12 12 13 13 14 15 15 16 16 16 16 15 14 13 13 14 13 13 13 14 14 13 13
13 9 9 11 8 5 6 8 8 7 6 5 5 6 4 3 1 5 12 14 15 18 18 16 16 17 16 16 17 17 16 16 16 15 16 18 20 19 18 18 17 17 16 16 15 15 14 12 12 11 10 11 11 10 11 11 12 12 12 13 13 13 13 13 14 14 13 13 13 13 12 12 12 12 12 13 13 14 14 15 16 16 16 16 16 15 15 14 14 14 13 13 14 14 14 14 14
Wind_Direction
341 330 325 321 320 298 270 289 291 247 270 278 281 286 318 25 332 301 312 326 301 62 13 306 266 257 282 332 68 74 32 17 22 3 49 97 127 140 143 139 139 141 137 135 135 135 136 136 133 133 132 130 127 125 126 126 125 126 125 123 122 120 120 118 117 114 111 110 109 109 106 103 102 101 99 99 98 97 97 96 98 99 101 101 100 99 100 101 102 102 99 95 92 88 82 76 72
335 327 319 308 296 281 271 316 291 280 269 280 280 285 344 341 313 334 3 1 11 57 33 21 149 175 315 350 103 126 52 42 58 78 92 120 130 136 139 137 141 139 135 134 133 132 132 135 134 134 132 131 128 125 128 128 127 129 126 124 123 121 121 118 116 114 111 109 108 106 102 102 102 101 99 98 97 97 97 96 99 101 102 100 100 100 99 99 98 98 95 93 91 87 81 74 67
327 329 311 275 255 267 270 239 275 287 277 281 285 317 17 317 341 25 39 49 60 66 62 95 135 111 240 206 165 164 91 64 80 95 115 136 134 137 140 137 140 136 134 133 131 132 131 134 134 133 132 131 129 127 128 130 129 129 126 125 124 122 122 118 116 113 111 108 106 103 101 102 101 101 98 97 96 97 96 96 97 99 103 102 100 100 99 96 94 94 93 94 92 87 79 72 65
321 313 291 271 247 241 254 254 275 285 278 280 287 17 42 325 47 56 67 64 55 91 190 161 140 60 307 181 105 69 102 83 88 107 130 139 136 139 137 134 138 134 133 132 131 131 131 136 134 133 133 131 131 129 130 131 129 127 125 125 124 124 122 119 116 114 112 111 109 107 107 104 101 100 98 97 96 96 96 96 98 101 107 108 102 98 98 96 93 95 98 98 91 81 71 65 60
273 274 263 271 271 273 278 276 275 269 272 280 288 328 33 90 94 69 75 71 22 330 214 209 141 106 25 44 23 91 103 95 107 119 125 125 130 134 133 134 137 134 133 131 131 129 132 137 133 134 133 130 132 129 131 132 129 128 127 125 124 125 124 120 118 116 115 113 112 110 107 102 99 98 97 96 92 92 93 96 102 109 114 115 113 105 100 97 93 98 103 95 86 75 64 60 57
234 227 221 252 283 315 273 264 263 260 266 273 282 310 18 129 96 57 46 134 96 357 222 233 205 143 129 58 34 48 76 117 126 125 123 126 130 131 131 137 138 131 132 130 129 128 133 136 133 134 130 128 130 127 130 131 131 130 128 126 125 125 125 122 119 119 117 113 111 108 105 102 98 95 95 95 90 82 83 95 109 118 118 122 128 114 101 101 101 104 106 94 85 75 62 60 63
242 227 190 225 220 224 256 262 267 269 275 275 280 302 274 159 103 329 282 214 170 163 216 244 197 149 126 117 77 63 77 126 123 125 126 129 130 130 135 138 133 129 130 126 126 130 135 135 132 132 128 127 128 128 130 131 131 129 129 127 125 126 124 122 122 121 117 112 111 108 104 100 96 95 95 93 88 78 78 94 112 128 127 126 134 119 104 108 114 114 110 99 87 72 62 64 69
231 246 212 251 242 214 255 262 264 269 275 7 280 294 273 182 195 275 271 242 224 147 202 201 196 181 110 146 104 82 105 108 114 122 125 131 130 131 137 136 130 130 130 125 126 132 135 133 130 129 127 127 127 129 131 130 130 130 130 128 128 128 125 125 124 122 115 113 112 106 99 91 89 93 96 92 83 76 77 87 99 114 119 121 129 124 113 110 118 122 116 102 85 69 64 68 76
208 231 218 252 255 239 254 261 261 265 258 253 254 253 248 223 240 263 260 242 250 238 198 178 206 195 117 124 105 99 106 109 118 123 127 131 132 133 137 137 132 132 131 126 127 129 133 132 129 127 127 127 127 129 131 131 131 131 129 131 133 131 129 127 126 123 117 115 110 103 93 83 80 86 97 95 85 78 78 83 91 98 104 112 123 131 130 124 127 130 122 105 87 72 67 73 84
201 222 237 240 255 252 253 260 258 261 255 253 255 240 233 234 242 248 249 242 229 220 176 171 216 175 131 121 108 106 114 123 124 125 130 130 134 135 135 137 134 135 133 129 128 129 132 131 128 127 128 128 128 129 132 135 135 133 133 136 136 133 131 129 128 124 119 115 109 102 90 79 74 80 92 92 86 82 80 80 81 86 91 97 110 130 140 138 135 133 123 107 89 78 74 80 90
211 203 244 246 246 252 257 263 258 258 237 231 242 229 234 236 241 240 239 237 227 209 171 187 196 147 131 121 106 110 129 135 128 128 132 130 131 129 130 133 134 137 135 132 130 131 133 131 128 129 130 129 129 131 135 140 139 136 137 139 137 134 132 130 129 124 120 114 106 98 85 77 76 83 89 87 86 85 84 79 75 76 80 89 101 124 136 137 136 133 124 108 91 82 80 87 97
232 196 206 240 245 253 260 268 267 272 247 235 226 192 226 237 231 232 228 220 214 207 189 193 168 145 138 123 117 132 143 140 129 130 130 125 125 125 130 132 136 139 136 135 133 134 136 133 130 129 132 132 133 134 136 140 139 138 139 140 138 136 134 131 129 123 119 110 100 93 84 79 83 88 90 90 89 87 86 81 75 73 77 90 102 123 135 136 137 133 122 108 93 85 85 93 103
235 214 214 237 251 256 259 267 265 275 263 235 176 122 254 242 227 225 224 212 203 208 195 180 159 153 135 117 126 141 142 135 130 132 129 125 125 126 131 133 138 139 137 138 136 137 138 136 133 131 132 131 132 133 134 137 139 141 138 138 138 136 136 131 127 122 117 106 96 90 85 82 83 86 90 92 91 90 89 86 80 73 73 86 107 127 139 142 139 133 124 108 94 89 89 97 106
228 222 235 242 246 249 252 258 250 257 247 155 110 59 285 240 236 238 233 212 199 203 171 152 163 153 124 124 141 150 139 134 134 134 131 127 125 127 130 132 136 136 137 139 137 138 140 139 135 134 133 131 129 126 128 135 141 143 137 137 140 140 139 132 127 123 115 103 96 93 87 85 81 78 84 86 88 92 86 85 87 78 72 79 107 132 145 151 144 137 129 111 98 91 91 100 110
229 219 240 245 241 239 234 242 248 258 222 132 100 355 302 221 238 247 231 217 188 158 130 141 180 172 157 162 159 154 141 136 134 132 131 125 125 127 127 129 134 136 136 138 138 138 141 139 136 137 138 138 134 126 126 131 139 143 140 140 143 141 137 132 128 122 113 105 103 100 90 83 77 73 77 73 78 90 84 83 89 85 79 76 94 132 152 158 152 146 135 119 103 92 94 104 114
228 222 227 240 239 234 217 216 227 250 184 123 87 348 307 145 172 246 231 227 158 140 161 151 178 270 170 159 143 144 139 134 133 130 129 125 125 126 125 131 134 134 135 137 138 137 139 138 137 140 141 140 134 129 129 130 136 139 139 143 144 140 137 134 129 123 117 116 114 104 91 82 75 70 74 69 67 86 96 96 91 89 87 79 82 114 153 164 162 155 143 131 112 100 97 107 121
211 223 224 231 233 230 208 200 206 239 131 116 53 355 316 315 152 224 201 211 162 153 168 130 110 47 102 116 127 136 136 134 135 134 131 130 130 131 132 136 135 133 136 137 136 135 137 139 137 138 138 135 130 130 129 129 132 129 133 142 144 142 140 137 129 125 124 126 117 97 92 93 93 84 83 86 75 72 94 98 91 89 89 84 79 87 133 167 169 166 156 142 124 116 109 112 123
196 212 223 227 228 226 206 203 197 355 123 94 358 6 329 300 153 163 176 184 164 150 141 120 104 88 98 114 128 134 136 137 140 141 137 139 140 139 139 140 140 138 140 138 136 137 138 139 136 133 131 131 132 130 129 131 130 128 134 137 137 141 142 137 130 131 129 126 111 93 99 108 113 108 98 106 110 99 91 98 100 92 86 84 82 79 86 138 175 177 168 155 139 123 113 122 128
205 214 220 230 232 202 155 208 187 269 306 355 338 359 335 290 153 168 183 173 165 158 149 141 119 108 114 124 134 136 138 141 145 147 144 147 147 145 144 142 141 139 142 140 137 140 139 134 129 130 133 136 137 133 133 136 135 135 138 138 137 139 141 139 138 139 131 124 119 111 113 115 115 109 98 108 125 120 94 89 97 96 85 77 79 70 57 72 154 183 180 168 151 130 123 150 154
213 221 224 231 223 165 151 194 212 278 317 325 325 338 321 224 159 184 188 171 174 172 158 155 139 132 136 136 140 139 142 145 147 151 148 147 145 144 144 142 142 142 144 142 139 140 135 128 127 135 138 139 138 136 138 138 140 139 137 142 138 135 136 138 139 138 132 124 124 121 118 117 114 106 94 96 116 124 101 87 86 87 80 45 65 69 33 43 75 172 188 178 170 181 189 182 177
207 214 232 236 188 207 185 187 224 302 319 312 318 320 287 171 164 187 183 175 183 177 161 163 148 143 146 145 147 144 144 146 147 150 147 144 143 143 143 141 142 140 139 139 138 136 131 130 135 140 138 139 139 138 139 139 140 137 136 138 131 130 132 132 134 133 131 127 124 119 114 112 110 105 94 91 110 127 123 109 92 90 90 48 68 125 170 41 71 153 188 191 199 213 208 200 199
211 214 235 261 182 215 172 168 222 306 294 291 300 316 340 159 180 186 183 181 179 157 149 152 148 147 150 148 149 147 145 145 144 145 144 143 143 142 141 139 135 134 137 138 137 135 134 139 141 141 139 140 140 137 136 136 136 135 135 134 129 130 129 128 131 132 131 129 123 112 107 103 94 88 80 84 97 95 94 100 86 90 100 83 81 157 179 139 162 178 192 203 212 215 211 212 221
222 214 222 230 223 222 170 176 211 270 271 284 298 324 315 197 182 171 176 161 35 80 129 144 149 148 149 149 150 148 145 144 143 143 145 144 144 142 139 137 135 139 143 142 142 140 140 143 142 140 140 139 137 136 134 134 135 134 135 133 132 131 131 131 129 129 128 123 119 109 100 85 78 71 67 66 62 56 58 54 50 53 77 84 82 127 177 207 211 195 204 212 215 215 215 220 229
227 220 202 216 226 228 235 232 227 252 270 292 299 295 256 208 169 156 155 106 59 100 130 140 143 143 148 151 148 145 143 142 140 139 141 142 143 143 140 138 138 144 144 144 145 144 144 145 143 141 140 139 137 135 133 133 134 134 135 134 134 135 133 129 123 122 119 117 114 109 93 74 64 48 47 34 19 17 21 22 19 28 35 54 63 86 168 214 229 229 224 221 221 217 218 226 233
223 225 190 202 215 218 230 239 239 255 269 278 263 255 242 198 153 147 145 120 112 128 139 139 138 142 148 149 145 144 144 141 137 134 134 136 139 140 142 142 143 147 146 146 147 146 148 147 145 143 140 139 136 134 133 134 135 135 137 136 135 135 130 125 127 127 128 132 120 104 67 55 39 26 22 351 345 349 353 1 7 5 6 4 335 324 269 224 231 240 242 240 234 228 229 229 234
212 219 209 201 210 210 219 230 235 246 246 240 228 210 192 157 139 132 127 123 126 136 142 139 140 144 148 147 142 143 143 139 137 134 131 133 139 141 143 147 149 150 148 149 149 146 149 148 145 143 140 138 135 134 133 133 136 136 136 136 135 134 132 134 137 133 132 133 118 112 97 98 126 25 9 352 342 344 352 353 5 352 343 348 328 317 303 275 246 240 246 254 252 248 244 236 240
192 213 219 218 224 215 220 230 227 230 215 223 227 153 140 154 172 171 128 130 139 141 141 142 145 146 146 143 137 141 142 137 133 131 132 137 144 146 145 150 151 151 151 150 149 149 151 147 143 141 140 139 136 134 135 136 135 134 132 131 132 132 133 133 129 124 119 112 106 112 121 133 123 74 24 15 356 353 3 352 354 344 343 338 322 323 314 298 278 257 248 258 262 262 260 251 251
169 206 218 223 232 227 225 228 215 216 205 209 205 145 143 171 202 165 134 145 150 142 143 147 147 144 144 140 136 143 143 135 133 135 140 142 147 150 149 153 153 151 152 152 152 151 147 141 135 134 137 138 137 134 135 135 130 127 125 122 125 127 127 120 115 116 114 103 98 103 102 100 94 75 30 26 15 7 12 1 352 341 346 326 312 318 309 305 295 278 259 258 261 262 263 259 259
180 198 219 211 218 226 219 215 206 211 197 183 183 164 160 170 162 136 139 149 148 143 146 146 145 143 143 139 137 142 141 137 138 144 149 146 147 152 153 154 154 154 155 155 151 144 140 137 132 128 131 132 133 134 133 129 123 121 121 121 122 121 118 113 111 113 112 101 90 83 80 85 81 66 39 46 33 12 24 16 341 328 336 318 308 305 298 301 298 291 276 262 261 260 262 261 262
199 202 232 204 203 217 205 200 196 204 187 174 193 193 163 147 135 147 150 146 147 148 149 147 144 142 139 137 136 134 136 140 144 150 151 146 148 155 156 154 157 157 155 152 146 139 137 137 132 128 132 131 131 133 131 127 123 120 118 118 115 112 110 110 109 106 102 100 92 78 72 64 33 10 356 355 323 328 12 357 308 300 312 304 301 303 299 299 297 297 288 274 271 269 269 267 266
202 199 226 219 214 193 178 185 188 190 172 178 214 222 166 149 149 167 158 147 151 152 151 152 147 142 140 137 136 134 137 142 144 150 148 145 153 159 157 157 161 158 151 147 143 141 138 135 134 134 136 134 130 128 125 125 123 119 117 117 114 111 113 108 101 96 94 96 92 79 64 9 349 334 322 328 320 323 325 310 299 287 287 285 284 295 302 300 298 299 294 288 284 279 277 276 273
204 199 203 212 219 161 148 174 193 190 165 186 221 212 162 160 154 171 171 155 154 152 151 151 145 140 138 134 136 138 139 141 145 152 151 150 157 160 160 160 159 153 146 144 144 144 141 140 141 139 138 133 128 125 121 120 118 116 113 109 105 102 101 93 86 85 81 74 58 42 1 329 328 320 317 321 312 314 310 301 304 296 298 293 281 295 301 299 304 300 298 295 290 287 284 282 281
200 209 202 193 203 170 145 163 191 196 163 183 221 209 148 156 147 161 179 164 156 153 151 147 139 129 125 127 135 140 141 144 151 157 157 159 162 161 159 154 150 149 148 147 147 146 143 142 141 138 137 132 127 124 120 118 115 111 104 97 91 85 81 76 71 65 59 43 26 16 346 329 337 338 329 322 312 310 307 304 307 303 304 301 296 303 295 292 303 298 299 299 294 292 288 288 289
188 205 212 187 196 189 154 152 168 188 176 179 212 212 135 140 143 154 177 171 159 150 142 134 129 128 130 134 137 141 147 151 155 158 160 161 159 156 155 150 150 152 148 145 145 145 142 139 138 136 134 131 126 122 119 116 112 108 104 96 88 81 73 70 69 62 58 48 37 29 10 356 0 358 347 338 327 321 316 309 307 307 308 308 307 302 289 289 295 296 302 298 294 294 294 295 294
184 190 203 180 193 202 167 150 156 182 191 185 196 177 124 132 135 144 169 166 141 119 99 92 106 118 122 124 134 146 151 154 152 152 158 160 154 153 156 154 152 147 140 136 137 140 138 136 137 133 128 127 124 121 120 116 111 109 107 97 85 78 69 65 64 64 59 54 49 40 32 26 20 15 8 358 346 334 325 316 311 312 311 310 310 301 292 292 293 301 303 296 296 297 295 295 295
187 183 197 182 184 195 150 133 150 182 191 185 185 155 129 142 133 131 153 139 110 100 100 102 110 111 103 89 84 73 72 68 62 82 110 134 139 133 121 126 132 129 127 129 129 129 127 128 132 127 122 123 120 119 118 115 109 103 100 89 78 73 68 65 64 64 61 56 51 42 37 33 25 25 22 10 1 353 344 338 330 325 320 310 308 305 299 297 298 302 301 299 302 302 297 294 296
186 183 197 196 186 167 125 129 152 193 194 184 176 143 129 135 122 124 143 128 108 117 139 153 132 119 106 94 83 59 43 43 45 40 35 45 65 77 82 99 114 114 114 119 122 123 124 125 125 121 118 117 114 114 111 107 104 103 100 89 80 76 73 71 66 64 63 60 57 52 45 39 30 27 22 13 9 9 1 351 344 335 333 323 311 307 307 308 308 307 305 304 303 301 298 293 297
190 190 191 196 188 146 124 139 153 196 203 178 158 132 118 104 104 116 147 143 125 136 161 157 134 126 119 111 108 110 104 89 73 61 51 50 57 73 87 97 106 109 112 115 119 120 120 119 116 113 113 109 104 106 104 98 95 95 92 85 81 80 75 72 72 69 67 64 61 57 53 46 38 33 27 16 11 13 5 353 349 345 343 337 326 319 317 317 311 311 311 307 302 300 296 293 299
196 201 195 195 169 129 121 139 154 183 202 166 142 121 106 89 92 92 133 156 138 143 169 161 143 138 135 128 127 131 128 116 97 89 85 72 70 88 99 102 103 107 109 110 112 112 112 113 111 109 107 103 101 101 99 94 89 88 88 90 94 94 85 81 83 79 73 68 63 60 57 48 41 37 33 27 18 12 8 359 350 350 353 347 335 328 327 325 320 317 316 311 308 303 298 297 303
203 200 202 189 157 152 155 148 154 169 178 155 134 113 110 98 95 87 98 140 134 138 157 154 153 154 146 143 144 140 130 123 110 102 98 91 90 82 91 101 102 105 105 104 106 103 101 103 103 103 100 99 100 98 96 92 89 89 91 97 101 100 96 91 88 81 74 69 62 58 52 45 42 39 33 31 25 17 14 8 357 351 353 350 341 334 332 330 328 327 323 320 316 310 305 303 304
199 204 214 182 166 182 169 145 151 152 151 149 137 125 139 145 134 114 106 138 143 146 144 144 158 160 149 144 145 143 138 130 119 117 119 118 124 112 90 93 95 103 103 101 102 97 94 95 96 98 95 94 95 94 95 96 99 102 106 112 109 106 102 92 83 76 70 66 60 57 54 49 45 43 41 35 27 20 14 10 4 354 348 348 348 346 342 338 337 336 331 322 316 312 310 308 308
189 204 231 171 165 171 146 146 156 153 159 166 167 175 169 177 182 155 143 153 154 155 153 152 156 155 152 150 146 145 147 135 125 131 136 127 125 118 105 97 91 99 98 98 102 101 97 96 97 98 94 93 92 90 92 95 103 109 112 116 110 106 98 82 78 77 74 71 66 69 72 65 52 48 50 43 35 28 18 11 7 359 355 354 352 349 345 340 340 341 340 333 327 318 309 306 308
187 182 184 136 156 159 155 163 173 179 179 178 196 213 174 176 196 180 168 164 162 165 162 159 160 158 158 158 151 150 153 135 125 131 130 122 118 110 102 87 74 83 92 97 101 102 101 98 94 93 91 91 91 94 95 92 93 90 86 83 74 82 89 86 85 86 86 82 74 69 65 59 55 52 51 45 42 39 33 29 26 22 19 12 4 1 356 349 344 345 345 339 334 333 326 318 314
168 158 164 153 158 165 171 181 194 198 174 171 204 224 195 186 191 177 170 170 172 174 166 162 170 168 159 159 155 155 158 139 127 126 123 119 114 108 103 95 90 96 103 103 100 100 102 101 97 91 88 88 89 93 95 93 91 85 81 80 76 81 93 97 93 87 86 84 71 60 48 42 45 45 42 39 35 34 33 30 26 23 20 15 13 11 5 359 353 353 351 341 337 341 344 337 329
129 145 169 169 167 172 182 195 203 190 172 180 200 211 214 197 170 168 175 184 187 182 174 172 176 173 162 161 157 155 156 137 126 126 127 127 124 123 122 118 118 119 116 113 108 102 101 104 104 96 89 87 90 91 88 88 90 87 84 89 92 94 96 97 93 86 80 74 62 53 48 42 40 40 38 34 29 27 27 22 16 8 2 2 4 359 355 354 353 355 354 347 345 344 346 347 343
124 147 172 168 170 174 186 206 197 183 198 205 192 198 219 201 164 175 186 196 198 188 182 178 176 175 169 165 158 153 150 133 125 129 133 133 130 128 125 122 125 124 121 118 114 110 106 104 102 95 90 86 87 86 84 84 85 86 88 92 99 100 98 94 88 81 69 66 62 55 55 49 46 44 37 34 29 26 24 23 18 8 359 359 1 356 352 350 349 352 350 343 344 342 341 345 344
138 157 172 164 173 172 184 209 189 190 215 212 191 197 219 213 179 185 195 201 196 186 183 179 175 177 175 170 165 161 152 134 128 133 135 132 130 129 123 122 125 122 121 118 114 111 106 102 97 93 90 87 85 81 81 82 81 84 87 91 95 93 92 92 87 81 71 71 70 66 67 61 54 49 40 36 34 33 32 32 32 25 18 16 12 8 2 357 355 354 353 348 347 347 346 344 341
163 177 180 171 176 172 183 189 185 210 224 206 188 194 218 228 199 188 197 199 190 185 185 182 179 177 176 174 169 168 160 144 139 141 140 137 139 139 132 129 128 122 119 116 113 112 108 105 102 97 92 89 87 84 84 83 81 82 84 86 88 87 87 89 88 84 78 78 77 77 75 66 58 51 46 42 37 36 35 35 35 29 26 23 18 16 10 8 9 5 3 3 1 1 359 356 352
189 190 183 183 180 179 195 190 192 215 212 178 181 188 214 231 190 183 193 193 190 189 186 182 180 177 175 173 167 167 164 152 149 149 146 146 148 147 141 136 133 128 123 119 117 116 113 110 106 100 95 92 90 86 84 83 81 81 81 80 81 83 85 86 87 84 81 80 78 80 76 69 63 55 51 46 38 38 37 34 33 28 26 22 20 24 22 19 22 17 13 13 11 10 7 5 3
195 193 187 193 186 183 199 192 194 205 155 134 180 188 208 210 149 166 189 187 188 188 181 177 178 177 174 170 164 162 161 155 153 154 151 152 152 148 143 139 135 132 128 124 121 119 115 112 108 102 97 93 90 87 82 79 78 78 79 81 80 83 84 84 85 82 80 80 78 78 77 74 69 61 56 50 43 43 42 39 37 35 34 32 30 33 30 25 27 25 21 19 17 14 11 10 9
196 198 196 205 200 190 202 198 199 198 157 143 172 184 208 198 138 83 174 169 178 184 169 157 165 171 169 165 161 159 159 158 158 156 152 153 152 147 143 139 134 131 128 127 123 120 116 111 108 104 100 96 91 87 82 77 77 78 79 82 83 83 84 83 82 80 79 78 78 79 79 78 73 67 61 54 49 48 45 43 41 39 38 38 37 35 31 28 30 31 29 25 21 18 15 14 13
194 201 205 212 215 201 189 194 186 174 158 155 174 187 199 158 122 107 157 154 172 177 156 147 159 169 167 164 164 164 164 163 164 159 154 155 153 148 143 137 133 130 129 128 125 122 120 114 109 104 98 95 89 84 82 80 81 81 82 83 83 83 82 79 78 78 78 78 78 79 79 79 77 72 66 59 55 51 47 44 42 41 41 41 38 34 32 31 30 32 30 26 23 18 17 16 14
178 201 207 199 216 208 161 111 68 126 180 173 177 186 149 146 166 160 169 173 175 176 163 159 168 172 171 169 167 170 169 166 165 161 157 155 152 147 141 134 132 133 131 129 126 123 121 114 109 103 96 91 86 84 86 86 86 85 83 83 82 80 79 78 77 77 78 80 80 81 83 82 79 74 68 62 56 51 48 47 44 42 42 41 39 36 34 33 32 34 31 27 22 16 16 17 13
179 195 191 158 169 242 198 180 148 182 210 181 178 195 180 182 182 153 168 181 180 184 178 170 170 174 178 177 172 170 167 165 164 161 158 155 152 148 143 136 132 132 131 129 127 123 117 109 104 100 93 88 88 90 91 91 91 87 84 82 80 79 79 79 80 81 82 84 84 86 89 86 80 73 69 62 56 51 48 47 45 43 41 39 38 36 34 33 34 33 31 27 22 17 16 16 13
225 205 184 173 196 208 206 205 183 195 212 194 189 202 197 199 187 163 179 187 183 185 183 176 174 179 182 178 173 170 166 165 164 161 159 156 154 150 146 143 138 135 134 131 128 120 110 102 99 96 91 93 96 96 96 94 93 90 86 84 81 80 81 83 84 85 86 88 89 91 90 85 79 73 68 62 56 52 48 47 45 43 40 38 36 35 34 33 34 33 30 27 21 18 17 15 13
231 222 190 195 217 212 205 208 201 200 208 201 190 195 206 211 189 175 186 188 183 181 183 183 181 181 182 175 171 169 167 167 164 162 160 156 153 149 147 146 142 139 137 132 125 115 106 103 100 96 96 101 101 99 98 95 91 90 88 85 83 82 83 85 87 88 89 88 88 89 86 81 78 72 68 64 59 55 51 48 46 44 41 38 35 35 33 33 33 32 28 25 20 18 17 15 13
202 210 192 194 206 219 211 206 209 220 216 203 195 202 205 197 178 186 190 186 183 182 183 185 183 182 180 173 170 168 165 166 163 161 159 153 151 149 146 145 142 141 138 129 121 112 108 109 105 102 104 106 104 101 99 95 92 91 88 85 85 85 84 85 86 86 87 86 84 84 82 79 77 71 68 65 60 56 52 50 48 45 42 38 35 33 31 30 30 28 26 23 19 18 18 16 13
193 201 198 197 196 197 204 199 199 220 233 215 210 216 185 117 54 205 190 183 183 182 180 182 180 179 177 172 171 167 163 164 161 158 157 153 152 151 149 148 145 143 136 125 117 111 110 111 107 107 110 109 106 103 101 98 96 94 90 89 89 88 87 86 86 85 84 83 81 79 79 78 74 70 66 63 58 55 53 50 48 44 40 37 33 31 29 27 26 24 23 21 18 17 17 16 15
Height
794 794 792 793 790 790 788 786 801 796 795 807 795 792 788 781 785 786 786 783 785 786 782 781 779 778 781 783 781 784 787 789 795 803 809 805 802 803 803 804 806 809 811 814 816 818 819 821 822 824 825 826 827 829 831 832 833 834 834 835 835 836 836 836 837 837 837 838 838 838 838 838 839 839 839 839 840 840 840 840 840 840 840 840 840 840 840 841 841 841 841 841 841 841 841 841 840
795 795 793 794 790 792 790 788 808 804 800 810 792 787 786 778 784 788 789 788 788 786 781 780 779 779 780 779 778 783 791 791 790 797 802 802 803 805 804 807 809 810 812 815 817 819 821 822 823 824 826 827 828 830 832 833 834 835 835 836 836 836 837 837 838 838 838 839 839 839 839 840 840 840 840 841 841 841 841 841 841 841 841 841 841 841 841 842 842 842 842 842 842 842 842 842 842
795 795 794 794 790 789 789 792 808 809 809 812 793 781 782 784 788 788 788 788 786 783 782 782 782 783 783 784 783 788 797 792 789 795 800 802 803 805 807 808 810 812 814 816 818 820 822 823 824 825 827 828 829 831 833 834 835 835 836 836 837 837 838 839 839 839 840 840 840 840 840 841 841 841 842 842 842 842 842 842 842 842 842 842 842 842 843 843 843 843 843 843 843 843 843 843 843
795 795 794 793 791 791 794 800 804 807 810 806 794 781 781 788 788 787 786 784 783 781 783 784 786 784 784 790 787 788 796 794 791 795 800 801 802 805 807 810 812 813 815 817 820 821 823 824 825 826 828 829 830 832 833 835 836 836 837 837 838 838 839 839 840 840 841 841 841 841 842 842 842 842 843 843 843 843 843 843 843 843 843 843 843 843 844 844 844 844 844 844 844 844 844 844 844
796 796 795 792 795 795 796 803 801 806 807 797 793 782 781 785 785 787 784 783 781 781 784 783 789 786 784 789 787 790 795 795 794 794 798 802 803 807 808 811 812 814 817 819 821 823 824 824 826 827 829 830 831 833 834 836 836 837 838 838 839 839 840 840 841 841 842 842 842 843 843 843 843 844 844 844 844 844 844 844 844 844 844 844 844 844 845 845 845 845 845 845 845 845 845 844 844
795 795 793 791 794 794 800 807 803 802 792 785 789 781 780 784 784 787 783 782 780 780 781 782 787 786 790 792 789 792 795 795 795 795 799 803 806 808 810 811 813 815 818 820 822 824 825 826 827 829 830 831 832 833 835 836 837 838 839 839 840 841 841 841 842 842 843 843 843 844 844 844 844 845 845 845 845 845 845 845 845 845 845 844 844 845 845 846 846 846 846 846 846 845 845 845 845
794 794 792 794 795 796 806 808 800 796 781 777 785 781 780 783 784 785 784 784 782 781 781 782 781 785 795 793 794 797 796 796 794 797 801 804 808 809 811 812 814 817 819 821 824 825 827 827 828 830 831 832 833 834 836 837 838 839 840 840 841 841 842 842 843 843 844 844 845 845 845 846 845 846 846 846 846 846 846 845 845 845 845 845 845 845 846 846 846 847 847 847 847 846 846 846 845
795 794 793 799 801 801 806 802 795 790 781 778 782 781 781 782 784 785 785 785 785 784 783 782 778 788 796 790 798 801 797 797 796 801 803 806 809 810 813 814 816 818 821 822 824 826 828 829 830 831 832 834 834 835 837 838 839 840 841 841 842 842 843 843 844 844 845 845 846 846 846 847 847 847 847 847 847 847 847 846 846 846 846 846 846 846 846 846 847 847 847 847 847 847 847 846 846
793 795 796 802 802 802 804 799 792 784 780 780 780 781 782 782 784 785 786 785 784 784 783 782 779 790 796 792 801 801 798 801 801 803 805 808 809 811 814 815 817 819 822 823 825 828 829 830 831 832 833 835 836 837 837 839 840 840 841 842 843 843 844 844 845 845 846 846 847 847 847 848 848 848 848 848 848 848 847 847 847 847 847 846 846 846 846 846 847 847 848 848 848 847 847 847 847
793 794 797 802 801 803 803 795 789 782 780 780 780 781 782 782 782 785 787 785 782 783 782 779 781 787 792 797 804 802 801 803 802 805 806 809 810 812 815 816 819 820 822 824 826 829 831 832 832 833 835 836 837 837 838 839 840 841 842 843 844 844 845 845 845 846 847 847 848 848 848 848 849 848 849 848 849 849 848 848 848 847 847 847 847 847 846 847 847 847 848 848 848 848 847 847 847
795 794 795 802 804 804 799 791 784 780 780 781 780 779 779 780 782 785 785 785 781 782 782 781 785 787 791 798 804 803 803 803 803 806 808 810 812 813 815 817 820 821 823 824 827 830 831 833 834 835 836 837 838 838 839 840 841 842 843 843 844 845 845 846 846 847 848 848 848 849 849 849 849 849 849 849 849 849 849 849 848 848 848 847 847 847 847 847 848 848 848 848 848 848 848 847 847
797 795 797 804 801 796 790 788 784 779 781 783 782 778 777 779 784 786 784 785 781 782 782 781 782 783 794 801 803 804 802 804 805 807 809 811 813 815 817 818 821 822 824 825 827 830 832 834 835 836 837 838 838 839 840 841 842 842 843 844 845 846 846 847 847 848 848 849 849 849 850 850 850 850 850 850 850 850 850 850 849 849 848 848 848 848 848 848 848 848 849 849 849 849 848 848 848
795 792 798 801 792 789 788 789 786 786 785 780 780 778 778 780 783 782 780 781 781 784 780 776 776 780 795 800 802 804 803 805 806 808 810 812 814 816 818 819 821 822 824 826 828 830 832 834 835 837 838 839 840 840 841 842 843 843 844 845 846 847 847 848 848 849 849 850 850 850 850 850 851 851 851 851 851 851 851 851 850 849 849 848 848 848 848 848 849 849 849 849 849 849 849 848 848
790 788 794 796 789 790 790 790 787 790 786 776 779 779 778 780 780 777 778 781 780 779 773 770 773 783 797 800 804 804 803 806 807 810 811 813 815 817 819 820 822 823 825 827 829 831 832 834 835 837 838 840 841 841 843 843 844 844 845 846 847 847 848 849 849 849 850 850 851 851 851 851 851 851 852 851 852 851 851 851 850 850 849 849 848 848 849 849 849 850 850 850 850 850 849 849 848
788 786 792 795 792 792 789 788 786 789 782 774 781 779 778 777 776 778 777 780 777 769 769 772 773 784 793 795 801 800 802 807 807 811 811 814 816 817 820 821 823 824 826 828 829 832 833 835 836 837 839 840 841 842 844 844 845 846 846 847 847 848 849 849 850 850 850 851 851 851 852 852 852 852 852 852 852 852 852 852 851 850 850 849 849 849 849 849 850 850 850 850 851 850 850 849 849
786 787 795 797 794 792 787 785 787 789 779 774 779 777 780 777 774 779 773 771 776 772 773 778 777 781 784 784 791 795 802 806 807 811 811 814 816 818 820 821 824 825 827 829 830 832 833 835 836 838 839 840 841 842 844 845 846 846 847 848 848 849 849 850 850 851 851 852 852 852 853 853 853 853 853 853 853 853 852 852 851 850 850 850 849 849 849 849 850 850 851 851 851 851 850 850 849
786 790 797 797 793 789 784 783 786 785 778 776 778 776 782 779 774 776 770 769 776 778 777 780 779 778 780 782 788 795 803 806 808 811 811 814 816 818 820 822 824 826 828 829 831 832 833 835 836 838 839 841 842 843 844 845 847 847 848 849 849 850 850 851 851 851 852 852 853 853 854 854 854 854 854 854 854 853 853 852 851 851 850 850 850 850 849 849 850 850 850 851 851 851 851 850 850
789 794 797 794 788 782 779 778 778 778 778 779 778 777 782 781 777 774 773 776 777 781 783 782 782 780 782 787 793 798 803 805 808 810 811 814 815 817 820 822 824 826 828 829 831 832 834 836 837 839 840 841 843 844 845 846 847 848 849 849 850 851 851 852 852 852 853 853 854 854 854 854 854 854 854 854 854 854 853 852 851 851 851 850 850 850 850 850 850 850 850 850 851 851 850 850 850
789 790 793 788 779 776 775 775 776 778 780 780 778 777 779 779 777 774 777 782 780 785 788 785 787 788 789 793 796 800 802 805 808 809 811 813 815 817 818 821 824 826 828 830 832 833 835 836 837 839 840 842 843 844 845 846 848 848 850 850 851 852 852 852 853 853 853 854 854 854 854 854 854 854 854 854 853 853 852 852 852 851 851 851 851 850 850 850 850 850 850 850 851 851 850 851 850
785 785 791 783 774 776 776 777 779 779 780 781 780 777 778 776 774 775 778 783 783 784 787 787 792 793 793 796 797 799 802 805 808 809 811 812 815 817 819 821 824 826 829 830 832 834 835 836 839 840 841 843 843 844 846 847 848 849 850 850 851 851 852 853 853 853 854 854 854 854 854 854 854 853 853 853 853 852 852 852 852 851 851 851 851 851 851 850 850 850 850 850 851 851 850 850 850
782 783 786 777 775 780 778 777 778 779 780 782 781 778 778 774 772 775 777 784 785 781 782 785 789 792 794 796 796 799 802 804 807 809 810 813 816 818 820 822 825 827 829 831 833 834 836 838 839 841 842 843 844 845 846 847 848 849 850 850 851 851 852 853 853 853 854 854 854 854 854 853 854 853 853 853 853 853 852 852 852 852 852 851 851 852 852 851 851 851 851 851 851 851 850 850 850
782 782 779 775 779 782 777 776 779 780 781 782 781 780 777 773 774 775 776 783 783 778 779 781 784 789 793 796 797 798 802 805 808 810 812 814 816 819 821 824 826 828 830 832 833 835 837 838 840 841 842 843 844 845 845 847 848 849 850 850 851 851 852 852 853 853 853 853 853 853 854 854 854 853 854 853 853 853 853 853 852 852 852 852 851 852 852 851 851 851 851 851 851 851 850 850 850
783 781 777 779 780 780 777 777 780 781 782 782 781 779 775 776 778 775 776 782 780 775 776 779 782 788 792 796 797 799 803 806 809 812 814 816 818 820 822 825 827 829 830 832 834 836 837 839 840 841 842 843 844 845 846 847 848 849 849 850 851 851 852 852 852 853 853 853 853 854 853 854 854 854 854 853 853 853 853 852 852 852 851 851 851 851 851 851 851 851 850 850 850 850 850 850 850
783 780 778 780 779 780 779 777 779 780 782 781 778 778 777 779 780 777 780 784 780 777 777 779 784 789 794 796 798 801 804 807 810 813 815 817 820 822 824 826 828 829 830 833 834 836 838 839 840 841 842 843 844 845 846 846 847 848 849 850 850 851 851 852 852 853 853 853 853 854 853 853 853 853 853 853 853 852 852 852 852 852 851 851 851 851 851 850 850 850 850 850 849 849 849 849 849
783 780 778 779 778 779 777 777 779 779 780 778 777 780 777 776 778 781 785 785 782 781 781 782 787 793 797 798 800 802 805 809 812 815 817 819 821 823 825 827 828 830 831 833 834 836 837 838 839 841 842 843 844 844 845 846 847 848 849 849 850 851 851 852 852 853 853 853 853 853 853 853 853 853 853 853 853 852 852 852 851 851 851 851 850 850 850 850 850 849 849 849 848 848 848 848 848
779 778 777 778 779 777 776 778 778 778 778 776 778 780 776 773 777 787 788 786 785 783 784 787 791 795 798 800 802 804 807 810 813 816 819 820 822 824 826 828 829 830 832 833 834 836 837 838 839 840 842 843 843 844 845 846 847 847 848 849 849 850 851 851 852 852 853 853 853 853 853 853 853 853 853 852 852 852 852 851 851 851 851 850 850 850 850 849 849 849 849 848 848 847 847 847 847
773 775 776 777 777 775 776 778 777 776 776 775 779 781 778 775 779 791 791 787 787 787 789 790 793 796 798 801 803 806 809 811 815 817 819 821 823 824 826 828 829 830 832 833 834 836 837 838 839 840 842 843 843 844 845 846 846 847 848 849 849 850 850 850 851 851 852 852 853 853 853 853 852 852 852 852 852 852 852 851 851 851 850 850 850 850 849 849 849 848 848 848 847 847 846 846 846
773 775 777 778 777 777 777 777 777 776 776 774 775 780 781 779 781 787 790 788 788 790 793 793 795 798 800 803 805 807 809 812 816 817 819 821 822 824 826 827 828 830 832 833 834 835 837 838 839 841 842 842 843 844 845 846 847 847 848 849 849 850 850 850 851 851 852 853 853 853 853 853 852 852 852 852 852 852 851 851 850 850 850 850 849 849 849 848 848 848 847 847 847 846 846 846 845
774 776 779 778 777 778 775 775 774 774 776 771 773 784 786 785 785 785 787 789 790 793 796 796 797 800 802 804 806 808 810 813 816 817 818 820 822 823 825 826 828 829 831 832 833 835 837 839 840 841 842 843 843 844 845 846 846 847 848 849 849 849 850 850 851 851 852 853 853 853 853 853 853 852 852 852 852 851 850 850 850 850 850 849 849 849 848 848 848 847 847 846 846 846 845 845 845
776 776 777 776 779 779 770 770 772 773 773 767 773 787 788 788 791 788 787 789 792 796 797 798 800 801 803 805 807 809 811 814 815 816 818 819 822 823 824 826 827 828 829 831 833 835 837 838 840 841 843 843 843 843 844 845 846 847 848 849 849 850 850 851 851 852 852 853 853 853 853 853 853 853 852 852 852 851 850 850 850 850 850 849 849 848 848 848 847 847 846 846 845 845 844 844 843
776 778 778 775 778 775 765 767 772 775 772 767 775 788 789 791 794 790 788 790 793 798 799 800 801 802 803 805 808 811 812 815 816 816 818 819 821 822 823 825 826 827 828 830 833 835 837 838 839 840 842 842 843 843 844 845 846 847 848 848 849 850 850 851 851 852 852 853 853 853 853 853 853 853 852 852 852 851 850 850 850 850 849 849 849 848 848 848 847 846 846 845 844 844 843 843 842
774 781 784 776 773 770 767 768 769 773 773 770 775 786 791 791 793 792 789 790 793 798 801 801 802 803 805 806 809 812 813 815 816 817 818 819 820 821 822 824 825 826 827 830 832 834 836 837 838 839 841 841 842 843 844 845 845 846 847 848 849 849 850 851 851 852 852 853 853 853 853 853 853 853 852 852 852 851 850 850 850 849 849 849 849 848 848 847 846 846 845 845 844 843 842 842 841
773 777 779 774 771 769 771 771 767 768 773 775 775 784 793 790 793 795 790 791 794 798 802 802 803 804 807 810 811 813 814 815 816 817 818 819 820 820 822 823 825 826 828 830 831 834 835 836 838 838 839 841 841 843 844 845 845 846 847 848 849 849 850 851 852 852 852 853 853 853 853 853 853 853 853 852 851 851 850 850 850 849 849 849 849 848 848 847 846 845 845 844 843 843 842 841 840
776 774 771 769 768 766 771 775 769 767 771 776 775 779 788 790 794 797 792 792 795 800 805 806 805 806 808 810 812 814 815 815 816 817 818 819 820 821 822 823 825 826 828 830 832 834 835 836 837 838 839 840 841 843 844 845 846 846 847 848 849 850 851 851 852 852 853 853 853 853 853 853 853 853 853 853 852 851 851 850 850 850 849 849 848 848 848 847 846 845 844 844 843 842 841 840 839
772 776 771 769 769 764 768 772 770 768 770 774 774 777 787 794 797 798 794 794 800 808 814 814 810 807 809 810 812 814 814 816 816 817 819 820 821 822 823 824 825 827 829 831 833 834 835 836 837 838 839 840 842 843 844 845 846 847 848 848 849 850 851 852 852 853 853 853 853 853 853 853 853 853 853 853 852 852 851 851 850 850 849 849 848 848 847 847 846 845 844 844 843 842 841 840 839
763 768 767 768 771 767 766 768 767 766 769 773 773 780 793 800 800 799 797 798 807 815 817 816 812 808 811 815 819 821 820 821 820 820 822 823 824 825 826 827 828 829 830 832 833 834 835 836 837 838 840 841 843 844 845 845 846 847 848 849 850 851 852 852 853 853 853 854 854 854 854 854 853 853 853 853 853 852 852 851 850 850 849 849 848 848 847 847 846 845 844 843 843 842 841 839 839
759 762 764 762 764 769 769 770 769 763 768 773 770 780 796 801 803 801 800 803 810 815 814 812 810 810 815 819 823 826 827 827 824 825 826 827 829 830 832 833 833 832 832 832 833 834 835 836 838 839 841 842 843 844 845 846 847 848 849 849 850 851 852 853 854 854 854 854 854 854 854 854 854 853 854 853 852 852 851 851 850 850 849 849 848 848 847 847 846 845 844 843 842 841 840 839 838
762 761 764 762 762 769 772 771 771 765 770 778 774 785 803 806 807 805 801 805 808 810 810 809 809 813 817 818 820 824 827 827 825 828 830 830 834 837 838 839 837 835 834 833 833 834 836 837 838 840 841 843 844 845 845 846 847 848 849 849 851 852 853 854 854 855 855 855 855 855 855 855 855 854 854 853 853 852 852 851 850 850 849 849 848 848 847 847 846 845 844 843 842 841 840 839 838
766 762 764 766 763 771 777 772 771 768 772 781 782 795 812 812 810 809 805 804 805 805 805 805 809 813 814 816 820 822 824 826 826 828 830 833 838 841 841 840 839 836 834 834 834 835 836 838 839 841 842 843 844 845 846 846 847 848 849 850 852 853 853 854 855 855 856 856 855 855 855 855 855 855 854 854 853 853 852 851 850 850 849 849 848 848 847 846 846 845 844 843 842 841 840 839 838
766 764 764 765 764 771 780 778 774 771 771 779 789 804 815 815 813 813 809 806 805 805 804 804 807 811 811 812 817 821 822 824 826 829 831 834 840 842 840 838 837 835 834 835 836 837 838 839 840 841 843 844 845 846 846 847 848 849 850 851 852 853 854 855 855 856 856 856 856 855 855 855 855 855 855 854 854 853 853 852 851 850 849 849 848 847 847 846 845 845 844 843 842 841 839 838 838
767 762 759 761 764 765 770 776 776 774 776 779 789 808 816 814 815 815 811 808 807 806 807 808 807 808 809 812 815 819 821 821 824 830 831 833 838 841 839 836 835 835 835 836 837 838 839 840 841 842 844 845 846 846 847 848 849 850 851 852 853 854 855 855 856 857 857 857 857 856 856 856 856 855 855 855 854 853 853 852 851 850 849 848 848 847 846 846 845 844 844 843 842 841 839 837 837
769 766 759 757 762 764 767 774 775 783 793 784 783 806 816 809 809 814 812 810 809 808 809 810 808 808 810 814 817 820 822 819 820 827 830 831 835 838 838 837 837 836 836 838 839 840 841 842 843 844 845 846 847 848 848 849 850 851 852 852 853 854 855 856 856 857 857 857 857 856 856 856 856 856 855 855 854 853 853 852 852 851 850 849 848 847 846 845 845 844 843 843 842 841 839 837 836
770 766 761 760 762 765 770 771 774 786 795 784 777 794 810 808 805 807 809 811 811 810 810 809 808 809 811 814 817 820 822 820 820 826 830 833 835 837 839 840 841 841 840 840 840 841 843 844 845 846 847 848 848 849 849 850 851 851 852 853 853 854 855 857 857 857 858 857 857 857 857 856 856 856 856 855 855 854 853 853 852 852 851 850 849 848 847 847 846 845 844 843 842 841 840 838 836
766 760 760 766 764 766 769 768 771 774 779 785 780 782 799 807 801 801 808 813 813 810 811 810 808 809 811 813 817 820 823 821 822 827 832 835 837 838 841 843 844 844 843 842 842 843 844 845 846 847 848 849 849 850 850 850 851 852 853 854 855 856 857 858 858 858 858 858 858 858 858 858 857 857 857 856 856 855 854 853 853 852 852 851 850 850 849 848 847 846 844 844 843 842 841 839 837
761 757 760 764 763 766 765 765 768 769 782 798 788 778 793 802 794 797 807 811 814 812 809 809 809 810 812 815 818 820 822 822 823 827 832 834 835 836 840 842 845 846 845 844 844 845 846 847 848 849 849 850 850 851 851 851 852 852 853 855 856 857 858 858 859 859 859 859 859 859 859 859 859 858 858 857 857 856 855 854 853 852 852 851 851 850 849 848 847 846 845 845 844 843 842 840 839
757 758 760 762 764 765 764 766 769 776 792 799 786 779 790 797 793 797 805 807 808 806 804 806 808 810 813 816 819 821 822 822 823 827 831 833 834 835 838 841 845 846 845 846 846 847 848 849 850 850 850 852 852 852 853 853 853 853 854 855 856 857 858 859 859 859 859 859 859 860 860 860 859 859 858 858 857 856 855 854 853 853 852 851 851 850 849 848 847 846 846 846 845 844 843 842 840
756 760 763 766 768 766 769 768 769 788 799 787 778 776 780 793 794 790 795 794 792 796 800 803 806 809 813 815 818 820 821 822 824 828 831 834 837 838 839 842 845 846 846 847 848 849 850 851 852 852 852 853 854 854 854 854 854 854 855 856 857 858 858 859 859 859 860 860 860 860 860 860 860 860 859 858 858 857 856 855 854 854 853 852 851 850 850 849 848 847 847 846 845 844 843 842 841
758 761 763 772 777 775 780 778 780 799 798 774 768 774 778 789 789 780 780 779 778 787 794 799 805 809 811 813 815 818 819 822 825 828 832 835 839 840 840 843 845 846 847 848 849 851 852 853 853 853 854 855 856 856 856 856 856 856 857 857 858 858 859 859 860 860 860 860 860 861 861 861 861 861 860 859 858 857 857 856 855 855 854 853 852 851 850 849 848 848 847 846 845 844 843 842 841
759 760 764 778 786 790 795 792 793 796 787 770 765 775 783 781 775 771 773 774 775 779 784 792 801 807 810 811 814 816 818 822 825 828 832 835 838 840 841 843 845 846 848 849 851 852 853 854 854 854 855 856 857 858 858 858 858 858 858 858 859 859 860 860 860 861 861 861 862 862 862 862 862 862 861 861 860 859 858 857 856 855 854 853 852 851 850 849 849 849 848 847 846 845 844 843 842
760 758 764 775 782 798 805 795 793 790 785 778 768 776 786 777 771 771 769 771 773 775 780 788 797 804 809 810 813 817 818 822 826 827 831 835 837 840 841 842 844 845 847 849 851 853 854 854 854 855 856 857 858 858 859 859 859 859 859 859 860 860 861 861 862 862 862 863 863 863 863 863 863 863 863 862 861 860 859 858 857 856 855 854 853 852 851 850 850 849 849 848 847 846 845 844 843
757 750 755 764 766 783 796 787 785 784 783 784 781 785 785 777 780 779 770 771 772 773 780 788 797 803 807 811 814 818 820 823 825 827 831 835 837 840 841 842 844 845 847 849 851 853 854 855 855 855 856 858 858 859 859 860 860 860 860 860 861 861 862 862 863 863 864 864 864 864 864 864 864 864 864 863 863 862 861 860 858 857 856 855 853 852 852 852 851 850 850 849 848 847 846 845 844
756 746 753 761 751 757 777 780 774 775 784 791 789 786 777 774 784 782 777 779 775 775 782 792 802 806 808 813 815 817 820 822 824 826 830 834 837 840 841 842 844 845 847 849 850 852 854 855 856 856 857 858 859 859 860 860 861 861 861 861 862 862 863 863 864 864 864 865 865 865 865 865 865 865 865 864 864 863 862 861 860 858 857 856 855 854 853 853 852 851 851 850 849 848 847 846 845
754 753 756 752 740 746 771 784 777 777 790 790 783 782 779 780 785 780 780 784 779 779 784 792 803 806 809 813 813 815 818 820 823 826 829 832 836 840 841 842 844 845 847 849 850 853 854 855 856 856 857 858 859 860 860 861 862 862 862 862 863 863 864 864 864 865 865 865 866 866 866 867 866 866 866 866 865 864 863 862 861 860 858 857 856 855 854 853 853 852 852 851 850 849 848 847 846
751 759 752 745 748 753 761 777 786 788 792 786 780 782 782 783 784 781 784 786 782 781 783 792 802 805 808 810 811 813 816 820 824 826 828 831 834 838 840 842 844 846 848 849 851 853 854 855 855 856 858 859 860 861 862 863 863 863 864 864 864 864 865 865 865 866 866 866 867 867 868 868 868 867 867 867 866 865 864 863 862 861 860 858 857 856 856 855 854 853 852 852 851 850 849 848 847
745 747 740 746 766 771 764 773 786 790 791 788 782 778 777 776 777 780 782 782 781 780 781 791 801 803 805 807 809 812 815 820 823 825 828 831 834 837 840 842 844 846 848 850 852 853 853 854 855 857 859 860 861 862 863 864 864 864 865 865 865 865 866 866 866 867 867 867 868 868 869 869 869 868 868 868 867 866 865 864 863 862 861 860 859 858 857 856 855 854 853 852 851 851 850 849 848
745 741 739 745 756 761 761 765 770 777 785 786 786 787 779 765 760 768 774 773 774 777 780 788 797 801 803 805 808 811 815 819 822 824 827 830 834 837 839 842 844 846 849 850 852 853 853 855 856 858 860 861 863 863 864 865 864 865 865 866 866 866 867 867 867 868 868 869 869 869 870 870 870 870 869 869 868 867 866 865 864 863 862 862 860 859 858 857 856 855 854 853 853 852 851 850 849
751 750 750 751 751 751 755 756 755 762 773 777 788 795 777 755 752 758 763 765 767 771 777 784 792 798 801 803 807 810 815 819 821 824 826 830 835 837 839 843 844 847 849 850 852 852 853 856 857 859 861 863 864 864 865 865 865 866 866 867 867 868 868 868 868 869 869 870 870 870 871 871 870 871 870 870 869 868 867 866 865 865 864 863 862 861 860 859 858 857 855 854 853 852 851 850 849
744 749 748 749 752 756 764 767 758 755 760 764 775 782 767 758 760 756 755 761 765 768 775 782 789 796 800 803 806 809 814 818 820 823 826 830 834 837 840 842 844 847 849 850 851 852 854 857 858 860 862 863 864 865 866 866 866 867 868 868 869 869 869 870 870 871 871 871 871 871 872 872 871 871 871 870 869 868 868 867 866 866 865 864 863 862 861 860 859 858 856 855 854 853 852 850 849